Weather History for Hickory, NC

Change the Weather History Date:

Wednesday, January 16, 2013

  Actual Average Record
Temperature  
Mean Temperature 44 °F -  
Max Temperature 48 °F 48 °F 74 °F (1953)
Min Temperature 41 °F 26 °F 4 °F (1972)
Degree Days  
Heating Degree Days 20    
Moisture  
Dew Point 42 °F    
Average Humidity 92    
Maximum Humidity 97    
Minimum Humidity 87    
Precipitation  
Precipitation 0.45 in - - ()
Sea Level Pressure  
Sea Level Pressure 29.99 in    
Wind  
Wind Speed 1 mph (NE)    
Max Wind Speed 5 mph    
Max Gust Speed -    
Visibility 4 miles    
Events Rain    
Averages and records for this station are not official NWS values.
T = Trace of Precipitation, MM = Missing Value Source: NWS Daily Summary

Daily Weather History Graph

Daily Weather History Graph

Search for Another Location

Airport:

Trip Planner

Search our weather history database for the weather conditions in past years. The results will help you decide how hot, cold, wet, or windy it might be!

Date:

Astronomy

Jan. 16, 2013 Rise Set
Actual Time 7:34 AM EST 5:36 PM EST
Civil Twilight 7:06 AM EST 6:04 PM EST
Nautical Twilight 6:35 AM EST 6:35 PM EST
Astronomical Twilight 6:04 AM EST 7:06 PM EST
Moon 10:22 AM EST (1/16) 11:13 PM EST (1/16)
Length of Visible Light 10h 57m
Length of Day
10h 02m
Waxing Crescent, 28% of the Moon is Illuminated
Jan 16
Waxing Crescent
Jan 18
First Quarter
Jan 26
Full
Feb 3
Last Quarter
Feb 10
New

Hourly Weather History & Observations

Time (EST) Temp. Windchill Dew Point Humidity Pressure Visibility Wind Dir Wind Speed Gust Speed Precip Events Conditions
12:13 AM 41.0 °F 39.0 °F 39.2 °F 93% 30.06 in 10.0 mi NE 3.5 mph - 0.01 in Rain Light Rain
1:02 AM 41.0 °F - 39.2 °F 93% 30.05 in 3.0 mi Calm Calm - 0.01 in Rain Light Rain
1:43 AM 42.8 °F - 39.2 °F 87% 30.04 in 4.0 mi Calm Calm - 0.04 in Rain Light Rain
1:53 AM 42.1 °F - 39.9 °F 92% 30.02 in 6.0 mi Calm Calm - 0.04 in Rain Light Rain
2:53 AM 42.1 °F - 39.9 °F 92% 30.01 in 4.0 mi Calm Calm - 0.02 in Rain Light Rain
3:53 AM 42.1 °F 40.2 °F 39.9 °F 92% 30.00 in 3.0 mi ENE 3.5 mph - 0.02 in Rain Light Rain
4:53 AM 42.1 °F 40.2 °F 39.9 °F 92% 29.98 in 2.5 mi NNE 3.5 mph - 0.02 in Rain Light Rain
5:02 AM 42.8 °F - 39.2 °F 87% 30.01 in 5.0 mi Calm Calm - 0.00 in Rain Light Rain
5:14 AM 42.8 °F - 39.2 °F 87% 30.01 in 7.0 mi Calm Calm - 0.00 in   Overcast
5:24 AM 42.8 °F - 39.2 °F 87% 30.00 in 5.0 mi Calm Calm - 0.00 in   Overcast
5:32 AM 42.8 °F - 39.2 °F 87% 30.00 in 4.0 mi Calm Calm - 0.00 in Rain Light Rain
5:46 AM 42.8 °F - 39.2 °F 87% 29.99 in 5.0 mi Calm Calm - 0.00 in Rain Light Rain
5:53 AM 42.1 °F - 39.9 °F 92% 29.98 in 5.0 mi Calm Calm - 0.00 in   Overcast
7:53 AM 41.0 °F 39.0 °F 39.9 °F 96% 29.99 in 2.0 mi ENE 3.5 mph - 0.03 in Rain Rain
7:57 AM 41.0 °F - 39.2 °F 93% 30.01 in 1.8 mi Calm Calm - 0.01 in Rain Rain
8:04 AM 41.0 °F 38.0 °F 39.2 °F 93% 30.01 in 1.8 mi NE 4.6 mph - 0.03 in Rain Rain
8:06 AM 41.0 °F 38.0 °F 39.2 °F 93% 30.00 in 2.5 mi ENE 4.6 mph - 0.03 in Rain Light Rain
8:37 AM 42.8 °F - 39.2 °F 87% 30.04 in 1.8 mi Calm Calm - 0.09 in Rain Rain
8:53 AM 42.1 °F 39.2 °F 39.9 °F 92% 30.01 in 1.5 mi NNE 4.6 mph - 0.16 in Rain Heavy Rain
9:11 AM 42.8 °F 41.1 °F 39.2 °F 87% 30.02 in 1.8 mi ENE 3.5 mph - 0.04 in Rain Rain
9:18 AM 42.8 °F 41.1 °F 39.2 °F 87% 30.03 in 2.5 mi NNE 3.5 mph - 0.05 in Rain Light Rain
9:53 AM 43.0 °F - 41.0 °F 93% 30.02 in 2.5 mi Calm Calm - 0.05 in Rain Light Rain
10:53 AM 43.0 °F - 41.0 °F 93% 30.03 in 3.0 mi Calm Calm - 0.03 in Rain Light Rain
10:55 AM 42.8 °F - 41.0 °F 93% 30.04 in 2.5 mi Calm Calm - 0.00 in Rain Light Rain
11:53 AM 45.0 °F - 43.0 °F 93% 29.98 in 2.5 mi Calm Calm - 0.00 in Rain Light Rain
12:00 PM 44.6 °F - 42.8 °F 93% 30.00 in 3.0 mi Calm Calm - 0.00 in   Overcast
12:53 PM 46.0 °F - 44.1 °F 93% 29.95 in 3.0 mi Calm Calm - 0.01 in Rain Light Rain
1:53 PM 46.0 °F - 44.1 °F 93% 29.95 in 10.0 mi Calm Calm - 0.00 in   Overcast
2:53 PM 48.0 °F - 45.0 °F 89% 29.95 in 3.0 mi Calm Calm - N/A   Overcast
3:53 PM 48.0 °F - 46.0 °F 93% 29.96 in 3.0 mi North 3.5 mph - N/A   Overcast
4:53 PM 48.0 °F - 46.0 °F 93% 29.96 in 7.0 mi North 3.5 mph - N/A   Overcast
5:18 PM 48.2 °F - 46.4 °F 93% 29.98 in 6.0 mi Calm Calm - N/A   Overcast
5:41 PM 48.2 °F - 46.4 °F 93% 29.99 in 6.0 mi Calm Calm - N/A   Overcast
5:53 PM 48.0 °F - 46.9 °F 96% 29.96 in 7.0 mi Calm Calm - N/A   Overcast
6:06 PM 48.2 °F - 46.4 °F 93% 29.99 in 6.0 mi Calm Calm - N/A   Overcast
6:53 PM 48.0 °F - 46.0 °F 93% 29.97 in 5.0 mi Calm Calm - N/A   Overcast
7:53 PM 48.9 °F - 46.9 °F 93% 29.96 in 6.0 mi Calm Calm - N/A   Overcast
8:53 PM 48.9 °F - 46.9 °F 93% 29.95 in 5.0 mi Calm Calm - N/A   Overcast
9:41 PM 48.2 °F - 46.4 °F 93% 29.98 in 5.0 mi Calm Calm - N/A   Overcast
9:53 PM 48.9 °F - 46.9 °F 93% 29.96 in 4.0 mi Calm Calm - N/A   Overcast
10:53 PM 48.9 °F - 46.9 °F 93% 29.96 in 4.0 mi Calm Calm - 0.01 in Rain Light Rain
11:36 PM 48.2 °F - 46.4 °F 93% 29.97 in 2.0 mi North 3.5 mph - 0.05 in Rain Rain
11:49 PM 48.2 °F - 46.4 °F 93% 29.97 in 4.0 mi Calm Calm - 0.06 in Rain Light Rain
11:53 PM 48.9 °F - 48.0 °F 97% 29.95 in 5.0 mi Calm Calm - 0.06 in Rain Light Rain